Location: Bonneuil
(46.1010°N, 2.9693°E)
Time: 21:47:14
(UTC+00:00)

Cosmos 468 Rocket - Pass Details

Date: 09 April 2020
Orbit: 745 x 779 km, 74.0° (Epoch: 25 May)

Event Time Altitude Azimuth Distance (km) Brightness Sun altitude
Rises 20:33:38 0° 338° (NNW) 3,217 8.2 -20.5°
Reaches altitude 10° 20:36:01 10° 340° (NNW) 2,284 7.3 -20.9°
Maximum altitude 20:41:12 84° 68° (ENE) 759 3.8 -21.6°
Enters shadow 20:42:35 50° 151° (SSE) 950 4.1 -21.7°
